SCP
0 0 0 0 0 0 0 0 0 0 0 0 0 0 0 0 0 0 0 0 1 1 1 1 1 1 2 2 2 2 2 2 2 2 2 2 1 1 1 1 0 0 0 0
0 0 0 0 0 0 0 0 0 0 0 0 0 0 0 0 0 0 0 0 0 0 1 1 1 1 1 1 2 2 2 2 2 2 2 2 1 1 1 1 1 1 1 0
0 0 0 0 0 0 0 0 0 0 0 0 0 0 0 0 0 0 0 0 0 0 0 1 1 1 1 1 1 1 2 2 2 2 2 2 2 2 1 1 1 1 1 1
0 0 0 0 0 0 0 0 0 0 0 0 0 0 0 0 0 0 0 0 0 0 0 0 1 1 1 1 1 2 2 2 2 2 2 2 2 2 2 1 1 1 1 1
0 0 0 0 0 0 0 0 0 0 0 0 0 0 0 0 0 0 0 0 0 0 0 0 0 0 0 1 1 1 2 2 2 2 2 2 2 2 1 1 1 1 1 1
0 0 0 0 0 0 0 0 0 0 0 0 0 0 0 0 0 0 0 0 0 0 0 0 0 0 0 0 1 1 1 2 2 2 2 2 2 1 1 1 1 1 1 1
0 0 0 0 0 0 0 0 0 0 0 0 0 0 0 0 0 0 0 0 0 0 0 0 0 0 0 0 0 1 1 1 1 2 3 3 2 2 1 1 1 1 1 0
0 0 0 0 0 0 0 0 0 0 0 0 0 0 0 0 0 0 0 0 0 0 0 0 0 0 0 0 0 0 1 1 1 2 2 3 2 2 1 1 1 1 0 0
0 0 0 0 0 0 0 0 0 0 0 0 0 0 0 0 0 0 0 0 0 0 0 0 0 0 0 0 0 0 1 1 1 1 1 2 2 1 1 0 0 0 0 0
0 0 0 0 0 0 0 0 0 0 0 0 0 0 0 0 0 0 0 0 0 0 0 0 0 0 0 0 0 0 1 1 1 1 1 1 1 1 0 0 0 0 0 0
0 0 0 0 0 0 0 0 0 0 0 0 0 0 0 0 0 0 0 0 0 0 0 0 0 0 0 0 0 0 1 1 1 1 1 1 1 0 0 0 0 0 0 0
0 0 0 0 0 0 0 0 0 0 0 0 0 0 0 0 0 0 0 0 0 0 0 0 0 0 0 0 0 0 0 1 1 1 0 0 0 0 0 0 0 0 0 0
0 0 0 0 0 0 0 0 0 0 0 0 0 0 0 0 0 0 0 0 0 0 0 0 0 0 0 0 0 0 0 0 0 0 0 0 0 0 0 0 0 0 0 0
0 0 0 0 0 0 0 0 0 0 0 0 0 0 0 0 0 0 0 0 0 0 0 0 0 0 0 0 0 0 0 0 0 0 0 0 0 0 0 0 0 0 0 0
0 0 0 0 0 0 0 0 0 0 0 0 0 0 0 0 0 0 0 0 0 0 0 0 0 0 0 0 0 0 0 0 0 0 0 0 0 0 0 0 0 0 0 0
0 0 0 0 0 0 0 0 0 0 0 0 0 0 0 0 0 0 0 0 0 0 0 0 0 0 0 0 0 0 0 0 0 0 0 0 0 0 0 0 0 0 0 0
0 0 0 0 0 0 0 0 0 0 0 0 0 0 0 0 0 0 0 0 0 0 0 0 0 0 0 0 0 0 0 0 0 0 0 0 0 0 0 0 0 0 0 0
0 0 0 0 0 0 0 0 0 0 0 0 0 0 0 0 0 0 0 0 0 0 0 0 0 0 0 0 0 0 0 0 0 0 0 0 0 0 0 0 0 0 0 0
0 0 0 0 0 0 0 0 0 0 0 0 0 0 0 0 0 0 0 0 0 0 0 0 0 0 0 0 0 0 0 0 0 0 0 0 0 0 0 0 0 0 0 0
0 0 0 0 0 0 0 0 0 0 0 0 0 0 0 0 0 0 0 0 0 0 0 0 0 0 0 0 0 0 0 0 0 0 0 0 0 0 0 0 0 0 0 0
0 0 0 0 0 0 0 0 0 0 0 0 0 0 0 0 0 0 0 0 0 0 0 0 0 0 0 0 0 0 0 0 0 0 0 0 0 0 0 0 0 0 0 0
0 0 0 0 0 0 0 0 0 0 0 0 0 0 0 0 0 0 0 0 0 0 0 0 0 0 0 0 0 0 0 0 0 0 0 0 0 0 0 0 0 0 0 0
0 0 0 0 0 0 0 0 0 0 0 0 0 0 0 0 0 0 0 0 0 0 0 0 0 0 0 0 0 0 0 0 0 0 0 0 0 0 0 0 0 0 0 0
0 0 0 0 0 0 0 0 0 0 0 0 0 0 0 0 0 0 0 0 0 0 0 0 0 0 0 0 0 0 0 0 0 0 0 0 0 0 0 0 0 0 0 0
0 0 0 0 0 0 0 0 0 0 0 0 0 0 0 0 0 0 0 0 0 0 0 0 0 0 0 0 0 0 0 0 0 0 0 0 0 0 0 0 0 0 0 0
0 0 0 0 0 0 0 0 0 0 0 0 0 0 0 0 0 0 0 0 0 0 0 0 0 0 0 0 0 0 0 0 0 0 0 0 0 0 0 0 0 0 0 0
Wind_Speed
1 2 4 6 7 4 4 4 5 4 3 5 6 4 4 4 5 6 6 7 8 9 8 6 6 6 6 7 8 9 9 9 8 5 5 5 4 3 3 3 4 5 5 5
1 3 5 4 4 5 5 5 3 1 2 4 4 5 5 7 8 9 9 9 9 8 6 6 6 6 7 8 9 9 9 9 9 6 5 4 4 3 3 3 3 4 4 4
3 3 4 5 6 6 5 7 6 4 2 2 4 3 6 6 7 8 9 10 9 10 10 9 8 8 7 8 9 8 9 9 8 7 4 3 3 3 2 3 2 3 4 4
1 2 3 4 5 6 5 6 6 6 5 2 4 3 5 7 8 11 12 11 11 10 9 9 9 8 9 9 7 7 8 7 7 8 8 8 6 5 5 4 3 3 3 4
1 0 2 4 4 4 3 6 6 7 5 2 2 2 6 5 9 13 14 13 11 10 9 10 10 10 9 7 6 6 6 6 6 7 8 8 5 4 3 4 5 4 3 3
1 1 1 1 1 3 4 8 7 5 3 2 5 4 5 6 11 10 11 11 10 8 8 8 7 7 5 4 4 4 5 5 5 6 7 8 8 7 7 6 5 4 3 2
3 2 1 0 3 4 5 6 4 2 2 4 4 5 8 7 8 10 10 9 7 5 5 6 6 6 6 6 6 5 6 5 4 5 6 7 8 8 9 8 7 6 3 2
1 2 2 1 2 4 3 4 5 5 5 2 3 6 6 4 2 3 4 4 4 3 4 4 6 6 6 6 5 5 6 5 4 5 5 5 6 5 4 6 5 5 4 3
2 0 1 1 0 4 4 2 3 4 3 2 3 3 4 2 3 3 4 4 3 3 3 3 3 4 5 6 5 5 5 4 4 4 4 4 5 6 6 6 5 4 4 4
3 2 1 1 1 1 4 4 4 4 4 2 2 2 3 2 1 3 4 4 3 2 2 2 2 2 3 4 3 4 4 4 4 4 4 4 4 5 5 6 6 6 5 5
2 3 1 2 1 1 1 2 3 3 2 4 3 4 3 4 4 4 3 3 4 3 2 1 1 0 1 2 3 3 4 4 5 5 5 5 5 5 5 5 5 5 5 5
2 4 2 1 2 1 1 1 3 4 1 2 2 4 5 0 2 4 4 3 3 3 2 2 1 1 1 2 3 4 4 4 5 5 5 6 5 5 5 5 5 5 5 5
3 4 3 3 3 2 1 1 2 4 3 2 2 3 4 5 5 4 4 3 3 4 3 3 2 1 1 2 3 3 4 5 5 6 6 6 5 5 5 5 5 5 5 5
3 3 4 5 4 3 2 2 3 4 3 2 3 2 2 4 4 3 3 3 3 4 3 3 2 2 2 3 3 4 4 5 6 6 7 6 6 5 5 5 5 5 5 5
4 3 1 1 1 2 2 3 4 4 5 5 4 3 2 1 1 2 3 4 4 4 4 4 3 3 3 3 3 4 4 5 6 7 7 6 6 5 6 5 5 5 4 5
3 2 1 2 1 1 1 1 3 3 3 4 2 2 1 2 3 4 4 4 4 4 5 5 4 4 4 4 4 4 5 6 6 7 7 6 6 6 6 6 5 5 4 4
2 3 2 1 2 3 3 3 4 3 1 3 5 3 0 2 3 3 3 4 4 5 5 6 6 5 5 5 5 6 6 6 7 7 7 7 7 7 6 6 6 5 5 4
4 3 2 1 2 2 4 2 2 5 4 3 3 2 1 1 2 4 4 4 5 6 7 6 6 7 6 5 5 5 4 6 8 8 8 8 8 7 7 6 6 5 4 4
3 4 2 2 2 3 3 2 1 3 2 4 2 3 3 2 2 1 4 5 4 5 6 6 6 7 7 6 5 3 4 6 7 8 8 9 9 8 8 7 6 5 4 4
3 3 3 2 2 5 3 2 2 3 1 2 3 3 4 4 1 2 6 7 7 7 6 6 6 6 6 6 3 3 4 6 8 8 8 8 9 9 9 8 6 4 4 4
2 2 2 2 3 5 2 4 1 3 3 1 2 2 3 1 3 6 8 7 7 7 7 7 6 6 6 5 3 3 4 6 6 5 6 7 8 8 8 7 5 5 5 5
4 4 3 3 4 5 2 2 2 2 2 2 2 2 3 4 5 6 7 7 8 8 7 7 6 7 6 4 3 4 5 4 3 5 6 7 7 7 6 7 6 6 6 6
3 4 4 4 3 0 2 3 3 2 2 1 2 3 4 5 6 7 7 7 7 7 8 7 6 7 6 5 3 5 4 2 4 5 6 6 7 6 7 8 8 7 6 6
1 0 2 1 1 2 2 3 3 2 1 1 2 3 4 5 7 8 8 8 8 8 8 7 7 7 7 6 5 5 4 3 4 6 6 6 7 7 7 6 7 7 7 7
3 2 2 1 2 2 1 1 1 1 2 2 3 3 4 6 7 7 8 8 8 8 7 7 7 8 8 7 6 5 4 3 5 5 6 6 7 7 7 7 7 8 7 8
3 4 4 4 4 3 3 2 1 1 2 3 4 5 5 5 7 8 7 7 7 8 8 8 8 8 8 8 7 6 4 3 5 5 6 6 6 6 6 6 6 11 10 14
Wind_Direction
164 163 192 190 189 190 174 164 175 187 174 156 180 190 207 206 211 229 246 251 244 238 235 220 207 195 185 183 180 181 179 179 173 170 171 170 177 173 168 167 170 170 164 161
147 218 210 188 181 184 190 176 181 187 168 148 182 220 217 217 216 220 227 241 244 241 241 222 205 197 191 188 187 187 186 181 180 181 174 168 159 158 161 155 153 159 156 155
202 222 181 170 164 171 192 185 178 161 134 100 141 233 229 228 227 236 237 234 238 229 224 214 202 201 196 195 192 192 189 182 181 172 152 126 107 100 127 156 155 153 145 137
249 245 182 175 182 177 185 184 167 148 132 162 158 209 242 217 223 228 234 234 234 233 223 211 201 199 200 202 195 191 187 183 179 170 169 166 170 179 183 171 160 146 137 134
283 237 171 190 198 174 171 152 143 137 124 114 164 179 268 213 224 226 225 225 229 229 218 209 203 201 202 195 187 185 176 177 177 177 178 176 178 172 146 140 145 143 133 134
246 250 228 233 199 162 117 99 85 72 91 183 196 179 254 219 216 219 218 218 219 219 213 210 205 193 190 174 167 166 165 172 173 175 179 182 177 163 155 159 162 156 144 132
8 353 335 315 84 78 99 112 111 115 150 224 193 193 245 241 226 210 204 210 214 211 202 198 190 183 178 174 174 170 166 170 170 170 176 180 176 171 171 168 167 158 153 148
71 349 331 12 108 134 143 136 151 158 174 230 175 215 256 278 280 176 165 175 173 172 172 176 183 184 183 182 177 174 172 170 171 172 173 170 164 163 164 160 156 155 152 148
146 48 330 311 111 126 138 176 163 116 119 120 228 260 313 23 44 82 107 116 140 153 152 157 163 175 182 185 189 186 177 171 170 167 156 154 152 150 148 143 136 136 137 137
148 117 337 317 57 53 163 151 106 114 140 161 231 249 239 238 167 99 102 112 115 110 107 117 157 187 193 189 183 175 175 175 167 159 156 144 139 137 137 136 138 136 132 130
138 117 34 36 71 187 67 104 108 112 134 143 171 263 266 230 201 143 116 107 109 106 102 95 78 141 162 165 173 179 178 168 163 157 143 133 131 126 124 125 130 131 129 134
148 112 92 309 289 253 212 160 137 134 151 138 144 278 322 329 127 122 111 85 69 69 62 64 70 83 147 184 190 187 182 173 166 151 138 135 130 126 125 130 134 132 132 134
124 108 90 4 338 337 279 198 143 119 107 129 142 267 348 52 62 68 84 72 53 45 38 32 29 354 245 225 211 198 186 176 160 147 141 138 140 140 140 141 139 136 136 133
105 105 151 182 222 205 214 204 154 125 142 171 201 212 352 49 53 39 46 56 47 35 28 14 348 310 280 248 224 207 197 177 162 152 151 154 158 155 149 145 142 142 142 142
86 108 151 231 241 178 203 204 178 172 174 173 195 190 231 121 63 42 40 45 42 27 12 354 330 309 294 273 246 219 202 184 167 160 164 167 159 150 144 143 144 143 146 148
73 107 77 1 4 69 349 268 197 197 192 195 180 233 289 75 78 57 41 37 25 2 347 336 326 318 301 272 253 231 210 193 174 173 175 164 156 153 153 151 149 148 148 148
83 109 100 296 343 38 302 266 211 181 190 186 204 214 182 79 77 69 47 32 5 341 334 331 318 302 290 276 250 233 217 190 180 181 175 167 162 161 162 158 157 160 161 160
126 110 118 128 73 222 255 321 127 120 53 32 89 67 41 102 132 109 71 31 357 339 331 322 314 306 297 283 267 241 209 188 186 183 178 173 168 167 163 163 169 168 162 167
138 135 130 139 188 265 289 354 61 126 69 7 59 42 12 339 125 130 30 9 340 321 312 304 299 293 293 290 277 241 208 191 188 190 186 179 173 169 169 175 176 170 164 167
88 107 127 150 188 233 248 313 323 107 128 5 50 38 8 18 48 280 344 340 333 326 319 313 313 305 302 298 285 231 215 200 203 200 189 176 172 173 178 178 170 163 162 172
118 114 155 180 227 259 285 312 17 160 228 79 45 27 11 356 258 293 318 322 321 317 314 316 317 315 306 305 291 251 232 223 217 190 173 172 174 175 173 167 162 161 163 167
169 167 185 174 207 248 337 41 116 164 78 60 18 355 331 302 300 307 312 313 317 318 319 321 321 317 314 311 294 271 257 244 194 174 175 176 174 171 166 165 168 169 172 180
179 183 188 190 205 101 51 96 83 80 75 9 332 323 319 312 310 311 309 310 312 313 315 318 315 314 314 311 294 276 275 236 189 180 183 179 173 171 168 173 177 180 186 193
270 93 137 144 164 127 98 95 72 57 38 324 312 312 315 306 308 311 311 313 315 315 314 314 312 310 309 311 302 278 272 232 196 192 187 178 176 177 178 181 185 190 194 199
209 166 152 185 154 112 140 122 30 4 357 333 317 304 303 304 305 306 307 308 311 313 313 312 307 303 303 307 303 288 270 228 211 204 193 187 186 185 189 195 199 200 205 203
198 176 177 208 194 186 223 226 249 307 305 303 307 303 300 295 296 302 300 300 303 307 311 311 309 306 304 303 299 290 269 233 217 213 204 197 192 192 194 197 208 217 215 221